Back to catalog

STARLINK-31401

AliveCommunicationsVLEO
NORAD 59417·PAYLOAD·🇺🇸 United States

Launched Apr 5, 2024 from Cape Canaveral Space Force Station

Loading…

Next Passes (next 24 hours)

TLE

FreshSource: CelesTrak SupGP

Epoch: Sep 14, 2026, 14:35 UTC

1 59417C 24064V   26257.60812500 -.00030673  00000+0 -11110-2 0  2579
2 59417  43.0039  62.3489 0001369 261.2434 264.3322 15.27593934    11

Track STARLINK-31401 in real time with AllMySat

Download on the App Store